Vorticity
6 7 8 12 2 3 11 15 2 18 19 15 20 19 17 15 12 21 9 20 44 47 37 40 25 18 21 13 -8 20 29 13 25 10 12 9 7 10 12 11 9 11 10
2 8 7 1 11 18 6 8 6 24 14 6 18 22 7 15 25 2 51 44 44 21 8 25 22 6 -8 28 4 23 23 10 23 13 11 10 7 10 11 13 8 11 8
10 8 -1 16 -7 6 10 10 31 11 14 7 18 14 11 14 8 62 45 50 26 15 -5 57 0 23 20 38 9 27 17 11 23 16 9 11 8 8 12 14 8 8 8
12 5 9 4 12 8 15 21 10 19 10 27 12 15 17 27 68 50 18 19 33 30 10 29 31 22 6 13 6 26 23 12 22 19 8 10 9 9 11 13 10 8 6
11 10 8 10 29 20 18 10 9 12 13 15 18 24 76 44 27 13 15 4 16 20 19 29 32 23 36 31 28 27 17 12 27 18 8 9 11 10 11 12 10 8 6
5 5 16 30 8 11 21 5 14 12 1 34 39 53 10 11 12 19 22 29 28 31 40 43 38 42 44 42 23 19 14 5 33 16 9 10 11 12 12 13 10 10 3
15 18 16 18 25 11 7 16 9 2 7 49 50 21 8 25 44 53 54 49 36 37 34 33 16 39 47 21 19 15 15 9 30 19 11 11 12 12 12 13 12 10 4
15 18 16 16 15 8 6 15 2 10 16 53 35 14 43 58 2 24 26 17 26 34 36 21 41 24 14 16 14 15 10 17 26 16 10 12 13 12 9 13 9 10 6
12 14 15 14 11 10 18 5 11 6 30 54 6 19 12 -4 4 2 24 33 45 39 22 24 20 17 14 13 10 12 10 29 22 12 12 11 11 13 11 6 7 7 -1
8 16 12 13 18 17 14 5 10 1 19 54 10 9 18 20 19 23 30 22 8 19 1 11 13 12 10 24 14 18 28 33 17 12 11 12 8 14 14 -4 -23 -0 28
29 21 23 21 -1 14 4 21 12 8 0 48 33 3 18 7 7 23 18 20 27 22 22 14 5 21 22 1 14 29 30 22 13 12 10 9 5 16 15 13 15 -10 19
8 27 33 23 5 16 12 14 -12 20 10 19 37 25 11 19 18 13 14 22 18 11 16 21 12 9 17 29 30 31 23 14 14 12 9 10 9 11 7 -9 -1 1 14
-6 8 37 46 9 30 16 10 2 12 3 13 31 30 28 21 21 23 15 22 16 17 13 18 28 34 30 28 25 17 13 14 13 11 10 13 6 10 -1 -2 21 -16 2
1 3 8 52 16 36 19 1 16 -3 7 11 18 23 23 31 20 26 17 15 8 29 22 19 22 17 17 14 12 10 12 18 14 10 9 8 5 4 15 19 19 1 11
-0 2 -4 29 26 11 27 -0 13 21 -2 6 8 15 19 22 26 22 14 15 -4 24 12 22 21 18 13 12 14 19 22 11 4 9 1 9 9 26 1 11 9 -0 -5
2 2 3 -4 28 23 18 22 -7 22 14 -6 7 15 10 17 20 20 26 35 35 23 18 12 11 10 16 21 22 17 9 7 0 4 10 8 -7 10 12 9 5 1 5
4 3 3 5 -0 -3 60 -1 3 11 19 4 8 3 15 6 12 15 21 20 24 12 17 15 12 16 16 12 12 10 9 9 9 -3 -0 20 -2 -4 3 0 3 4 -1
10 7 4 4 5 4 -7 30 40 29 23 13 13 1 4 8 4 6 14 17 12 16 19 18 18 5 5 5 7 6 3 5 5 7 7 6 12 12 4 0 1 8 6
7 10 10 7 5 5 5 -1 -2 58 7 -1 15 24 16 9 6 -12 13 2 11 2 -6 -1 3 4 11 10 10 9 8 -2 9 9 4 6 15 10 7 7 -0 4 6
7 7 8 8 7 6 7 5 5 0 -3 14 43 14 10 12 6 29 18 10 26 2 1 -1 1 7 10 11 7 7 -4 -12 10 16 -2 -7 2 -4 1 -13 16 12 24
5 5 6 6 6 7 8 10 8 6 6 4 -4 -0 46 25 20 -10 11 21 24 25 29 14 7 7 -0 10 0 -17 19 16 9 3 4 1 8 13 11 2 8 8 -5
7 7 6 6 7 8 6 3 2 3 6 8 7 5 3 -5 2 45 40 14 2 8 -5 2 10 11 17 9 18 6 10 28 28 21 2 -3 16 14 17 35 39 35 30
7 7 7 7 7 6 6 7 8 9 9 8 6 5 8 7 7 5 -0 -5 6 33 32 9 2 20 18 15 20 40 19 28 21 25 22 16 18 23 19 18 14 8 5
2 3 4 5 7 7 7 6 4 5 5 5 4 4 7 9 7 6 7 8 8 6 5 1 1 0 -1 -1 1 3 1 2 1 0 1 -0 1 2 1 1 1 2 2
3 3 4 3 3 4 6 8 8 8 7 5 4 3 5 6 5 4 4 5 5 6 5 6 6 7 8 7 6 6 6 6 5 5 5 5 5 5 5 5 5 4 3
2 2 1 2 3 2 2 3 4 7 9 7 6 6 7 9 9 8 6 5 4 3 3 3 3 3 3 4 4 5 7 7 7 8 8 8 8 7 7 7 6 6 6
Height
5600 5594 5586 5579 5571 5562 5552 5542 5531 5519 5507 5496 5483 5470 5457 5446 5436 5427 5420 5415 5409 5407 5414 5421 5431 5444 5458 5471 5486 5501 5516 5532 5551 5570 5590 5610 5628 5644 5660 5675 5689 5702 5715
5599 5591 5583 5576 5567 5556 5546 5533 5520 5507 5495 5482 5467 5452 5438 5425 5413 5403 5395 5391 5391 5394 5400 5408 5418 5429 5442 5456 5473 5490 5506 5524 5541 5562 5583 5603 5623 5640 5657 5672 5687 5701 5714
5598 5590 5581 5572 5562 5551 5538 5525 5511 5499 5485 5469 5451 5436 5421 5407 5393 5382 5377 5377 5379 5382 5388 5394 5402 5413 5426 5442 5461 5477 5496 5516 5534 5556 5578 5598 5619 5638 5655 5670 5685 5700 5713
5596 5588 5580 5569 5557 5544 5531 5520 5507 5492 5475 5458 5442 5423 5405 5389 5377 5371 5370 5368 5368 5370 5373 5378 5386 5398 5412 5430 5448 5468 5489 5510 5530 5552 5574 5596 5616 5636 5653 5670 5684 5699 5713
5595 5587 5575 5564 5553 5541 5529 5517 5504 5488 5470 5452 5431 5411 5395 5381 5374 5369 5365 5363 5360 5361 5363 5367 5375 5386 5399 5419 5441 5464 5487 5508 5528 5550 5574 5596 5615 5635 5654 5669 5684 5698 5713
5594 5586 5575 5564 5552 5540 5529 5516 5503 5488 5467 5444 5423 5407 5395 5383 5374 5367 5361 5357 5354 5354 5355 5361 5369 5381 5395 5415 5439 5464 5489 5512 5531 5553 5577 5599 5619 5638 5655 5671 5685 5699 5711
5597 5586 5576 5565 5553 5542 5531 5520 5508 5489 5467 5442 5424 5411 5399 5386 5375 5367 5361 5357 5355 5355 5360 5369 5380 5389 5405 5427 5447 5470 5491 5512 5531 5558 5582 5602 5622 5640 5657 5672 5687 5700 5714
5598 5588 5578 5566 5555 5546 5537 5527 5513 5495 5471 5447 5431 5421 5408 5397 5388 5381 5375 5370 5367 5367 5373 5384 5396 5411 5427 5445 5464 5481 5500 5518 5536 5559 5583 5607 5626 5644 5660 5676 5691 5704 5717
5603 5591 5578 5570 5560 5553 5544 5534 5520 5501 5479 5457 5444 5436 5426 5417 5407 5399 5392 5388 5387 5389 5396 5406 5420 5434 5448 5463 5479 5494 5509 5525 5545 5568 5591 5612 5631 5649 5666 5681 5693 5708 5720
5606 5594 5583 5575 5568 5561 5552 5542 5529 5511 5490 5470 5459 5452 5443 5434 5426 5419 5413 5413 5417 5420 5424 5431 5441 5455 5467 5479 5494 5508 5523 5541 5561 5580 5600 5620 5638 5656 5672 5685 5700 5714 5724
5613 5601 5592 5583 5577 5568 5560 5551 5540 5523 5505 5487 5475 5468 5461 5452 5446 5440 5436 5437 5440 5444 5449 5455 5463 5473 5485 5497 5509 5521 5537 5555 5574 5593 5613 5631 5647 5663 5678 5690 5705 5720 5731
5622 5612 5602 5593 5586 5578 5570 5561 5551 5538 5523 5507 5492 5485 5479 5473 5465 5463 5461 5460 5462 5467 5472 5477 5485 5493 5502 5512 5523 5537 5553 5573 5593 5610 5627 5644 5659 5673 5688 5702 5716 5727 5737
5636 5625 5613 5604 5597 5587 5580 5573 5565 5554 5542 5527 5514 5503 5496 5491 5487 5484 5484 5486 5487 5491 5494 5499 5504 5511 5521 5531 5545 5560 5577 5593 5609 5627 5643 5658 5671 5687 5699 5712 5722 5731 5741
5651 5640 5628 5616 5608 5600 5593 5587 5580 5572 5561 5550 5538 5526 5517 5511 5508 5507 5508 5508 5512 5515 5518 5523 5528 5534 5543 5554 5566 5579 5594 5609 5625 5641 5654 5669 5684 5698 5710 5720 5730 5738 5746
5663 5655 5644 5631 5621 5615 5608 5602 5595 5588 5580 5571 5563 5552 5542 5537 5531 5529 5533 5535 5536 5539 5543 5548 5553 5560 5567 5576 5587 5599 5613 5627 5641 5656 5673 5685 5697 5708 5718 5727 5735 5745 5753
5676 5668 5658 5649 5637 5629 5623 5617 5611 5603 5599 5592 5585 5578 5572 5564 5556 5555 5556 5557 5559 5561 5567 5572 5578 5584 5592 5602 5613 5624 5635 5649 5662 5675 5686 5698 5708 5716 5726 5734 5742 5749 5756
5687 5680 5673 5667 5658 5648 5638 5633 5628 5621 5616 5612 5606 5603 5597 5591 5587 5584 5585 5587 5587 5590 5597 5598 5604 5609 5617 5627 5637 5647 5658 5668 5679 5691 5701 5711 5719 5726 5733 5741 5747 5752 5758
5698 5692 5688 5681 5674 5668 5660 5649 5645 5641 5635 5631 5627 5623 5619 5616 5615 5614 5613 5616 5614 5616 5623 5627 5632 5637 5642 5650 5658 5667 5677 5686 5695 5703 5711 5719 5727 5735 5741 5747 5753 5758 5763
5708 5703 5699 5693 5688 5681 5677 5672 5666 5660 5655 5648 5646 5644 5640 5638 5638 5638 5639 5641 5641 5643 5647 5651 5657 5662 5668 5673 5680 5687 5694 5702 5709 5715 5722 5729 5735 5742 5747 5752 5757 5761 5765
5718 5714 5709 5705 5699 5695 5692 5689 5684 5680 5676 5668 5663 5661 5660 5659 5659 5657 5658 5661 5664 5666 5668 5672 5676 5680 5686 5692 5697 5703 5709 5714 5719 5725 5730 5736 5742 5747 5751 5756 5760 5764 5766
5727 5724 5720 5717 5712 5709 5704 5701 5698 5695 5693 5689 5683 5678 5676 5677 5677 5677 5678 5679 5681 5683 5685 5688 5692 5696 5700 5706 5711 5716 5720 5724 5728 5732 5736 5741 5746 5750 5754 5758 5761 5765 5769
5736 5733 5730 5727 5724 5721 5718 5715 5712 5709 5706 5704 5700 5698 5697 5697 5695 5693 5693 5694 5695 5697 5699 5701 5704 5708 5711 5715 5719 5722 5725 5728 5732 5736 5741 5746 5750 5754 5757 5759 5762 5764 5766
5744 5742 5739 5737 5735 5732 5729 5727 5724 5722 5720 5718 5715 5714 5713 5712 5711 5711 5710 5710 5709 5710 5712 5715 5717 5719 5721 5724 5727 5730 5734 5736 5739 5741 5745 5749 5753 5756 5759 5761 5763 5764 5765
5751 5749 5747 5745 5743 5741 5740 5738 5736 5734 5732 5731 5729 5728 5727 5726 5725 5725 5724 5724 5724 5725 5726 5728 5729 5731 5733 5734 5737 5740 5742 5744 5746 5748 5751 5754 5756 5758 5760 5762 5764 5766 5767
5756 5755 5754 5752 5751 5749 5748 5746 5745 5744 5742 5741 5740 5739 5738 5738 5737 5736 5736 5735 5735 5735 5737 5738 5739 5740 5742 5743 5745 5747 5748 5750 5752 5754 5756 5758 5760 5761 5763 5764 5765 5765 5765
5758 5757 5757 5756 5756 5755 5754 5753 5751 5751 5750 5749 5748 5747 5746 5746 5745 5745 5745 5744 5744 5744 5744 5745 5746 5747 5748 5749 5750 5751 5752 5754 5755 5757 5758 5759 5760 5760 5761 5761 5760 5760 5760